TIME,DELAY(SENSOR),PRES,T(CTD),SAL,OXYGEN,RAWTEMP,T(OPTODE),TCPHASE,FLUOR,BETA(BETA700),BETA(BETA412),BETA(BETA440),CDOM,C(CSC),ED(ED411.90),ED(ED443.80),ED(ED489.40),ED(ED554.70),LU(LU412.20),LU(LU443.80),LU(LU489.40),LU(LU555.00),COMP,TILTX,TILTX(TILTY),CHECK
1375283379,5806,494.9599914550781000,15.8043003082275390,36.1365013122558600,189.1860046386718800,227.6674957275390600,15.8146400451660160,34.2756004333496100,62,465,65,63,61,9703,2146958747,2147517385,2147278418,2147467218,2147081088,2146944694,2147662619,2147124745,959,-1,8,50821
1375283497,5806,484.6600036621094000,16.0317001342773440,36.1799011230468750,190.2364959716797000,219.6761932373047000,16.0554103851318360,34.0933303833007800,63,458,65,63,61,9713,2146962029,2147513088,2147276233,2147467812,2147082523,2146944027,2147659584,2147123968,3130,-1,8,29661
1375283624,5806,473.2600097656250000,16.2798995971679700,36.2296981811523440,195.7337036132812500,212.3256988525390600,16.2768898010253900,33.6476707458496100,63,468,65,64,61,9708,2146957458,2147512905,2147273508,2147464649,2147080886,2146945984,2147658898,2147125494,2506,-1,8,21716
1375283742,5803,462.6700134277344000,16.4048004150390620,36.2521018981933600,198.0944061279297000,208.2512054443359400,16.3996696472167970,33.4472694396972660,62,468,66,64,60,9710,2146960164,2147514816,2147272978,2147462893,2147079332,2146948708,2147660297,2147125202,2311,-2,8,59746
1375283869,5805,451.1400146484375000,16.4636001586914060,36.2652015686035160,199.6961059570312500,206.1138000488281200,16.4640808105468750,33.3216896057128900,62,463,64,64,60,9697,2146960667,2147512786,2147274276,2147460763,2147080950,2146947145,2147661796,2147125083,1536,-1,8,23064
1375283986,5805,440.4599914550781000,16.6138992309570300,36.2906990051269500,201.5433044433593800,201.2778930664062500,16.6098194122314450,33.1440391540527340,62,455,65,64,60,9711,2146960256,2147513718,2147272118,2147460452,2147077056,2146946404,2147659328,2147121883,699,-1,8,22446
1375284113,5806,428.9800109863281000,16.8754997253417970,36.3311996459960940,203.2438049316406200,192.6817016601562500,16.8689403533935550,32.9237098693847660,61,470,66,64,60,9707,2146960228,2147515803,2147272073,2147462235,2147079917,2146947849,2147656649,2147119926,698,-1,8,20361
1375284228,5805,418.3599853515625000,17.1844005584716800,36.3922996520996100,207.0133056640625000,181.8630981445312500,17.1951408386230470,32.5565795898437500,62,459,66,64,60,9710,2146960256,2147511625,2147270857,2147460050,2147081965,2146946761,2147653851,2147122368,860,-1,8,10848
1375284345,5808,407.5799865722656000,17.4463996887207030,36.4416007995605500,212.7949066162109400,173.8905944824218800,17.4356193542480470,32.1253395080566400,62,449,64,63,59,9707,2146959314,2147510546,2147269494,2147456164,2147080228,2146953526,2147654272,2147128795,36,-1,8,55664
1375284472,5804,395.6900024414062500,17.5554008483886720,36.4640998840332000,216.3666992187500000,169.7351989746093800,17.5610008239746100,31.8751792907714840,61,456,64,63,60,9711,2146959387,2147515712,2147267282,2147457088,2147083245,2146951917,2147654646,2147122596,2398,-1,7,37150
1375284587,5805,384.8800048828125000,17.6359004974365230,36.4785995483398440,217.4078063964843800,167.1127014160156200,17.6401405334472660,31.7841491699218750,61,469,65,64,59,9702,2146956608,2147515776,2147268781,2147457910,2147084800,2146953947,2147652763,2147126464,2524,-1,8,61123
1375284705,5803,374.1099853515625000,17.8005008697509770,36.5066986083984400,218.4624938964843800,161.9980010986328000,17.7945194244384770,31.6581993103027340,62,456,64,63,59,9707,2146957010,2147512374,2147271140,2147458550,2147080640,2146952265,2147651154,2147123584,2557,-1,8,16638
1375284832,5805,363.0100097656250000,17.9211997985839840,36.5270996093750000,219.9136047363281200,157.7677001953125000,17.9222297668457030,31.5244407653808600,62,457,66,64,59,9696,2146956205,2147510034,2147270848,2147454107,2147082486,2146955648,2147645595,2147125906,2372,-1,8,48928
1375284961,5803,352.2500000000000000,18.0300006866455080,36.5413017272949200,220.5823059082031200,154.4447021484375000,18.0225791931152340,31.4446296691894530,62,459,65,63,58,9706,2146956553,2147511414,2147270756,2147452964,2147078656,2146951012,2147651876,2147126610,2441,-1,8,4866
1375285100,5804,341.1799926757812500,18.1460990905761720,36.5584983825683600,220.2357025146484400,150.4994049072265600,18.1417503356933600,31.4092292785644530,62,457,64,64,59,9702,2146956928,2147513444,2147269220,2147453613,2147076352,2146952886,2147652800,2147128374,1671,-1,8,6779
1375285239,5805,330.7999877929687500,18.2266998291015620,36.5696983337402340,220.1441955566406200,147.8744964599609400,18.2210597991943360,31.3782291412353500,61,465,64,63,59,9705,2146957485,2147513398,2147269723,2147454902,2147076068,2146958500,2147649590,2147125467,1714,-1,8,47466
1375285371,5803,319.5700073242187500,18.2882995605468750,36.5744018554687500,219.1472930908203000,145.7698059082031200,18.2846508026123050,31.4018898010253900,62,461,64,64,59,9703,2146958948,2147511771,2147268845,2147454848,2147075977,2146954980,2147649682,2147127497,1212,-1,8,52272
1375285484,5804,308.4299926757812500,18.3836002349853500,36.5805015563964840,218.8394927978515600,142.6641998291015600,18.3785095214843750,31.3761196136474600,61,468,64,64,59,9698,2146957577,2147512941,2147270601,2147453321,2147067913,2146958628,2147654966,2147126418,1595,-1,8,30542
1375285601,5805,297.0100097656250000,18.4473991394042970,36.5826988220214840,218.2232971191406200,140.1396942138672000,18.4548206329345700,31.3740997314453120,61,450,65,63,59,9696,2146960923,2147512566,2147270281,2147449536,2147075456,2146955949,2147653869,2147126299,1429,-1,8,6950
1375285716,5807,286.1400146484375000,18.5734996795654300,36.5900993347168000,213.6558990478515600,136.0558929443359400,18.5783004760742200,31.5612907409667970,61,462,64,63,61,9704,2146959497,2147514651,2147267830,2147449161,2147073069,2146957805,2147656000,2147128292,863,-1,8,3530
1375285831,5806,275.6300048828125000,18.7616996765136720,36.6052017211914060,215.2194976806640600,129.6221008300781200,18.7729091644287100,31.3908901214599600,61,474,64,63,59,9711,2146956516,2147513865,2147269677,2147451053,2147072758,2146959533,2147659629,2147129627,55,-1,8,58529
1375285960,5806,264.1000061035156000,18.9267997741699220,36.6167984008789060,214.3007965087890600,124.2839965820312500,18.9344596862792970,31.3680305480957030,60,448,66,63,59,9700,2146957970,2147510793,2147271277,2147448457,2147078180,2146964964,2147665024,2147128310,416,-1,8,35991
1375286087,5802,252.7400054931640600,19.1217994689941400,36.6165008544921900,217.5617065429687500,118.3507003784179700,19.1141109466552730,31.1161098480224600,61,464,65,64,59,9698,2146955337,2147511104,2147270902,2147449115,2147073764,2146972571,2147672987,2147127881,3484,-1,8,64698
1375286202,5801,242.3399963378906200,19.3264999389648440,36.6179008483886700,222.4382934570312500,111.6875991821289000,19.3159694671630860,30.7753696441650400,61,463,65,63,58,9685,2146956461,2147515254,2147265984,2147448292,2147074587,2146974546,2147684251,2147130148,3243,-1,8,5045
1375286332,5804,231.0700073242187500,19.5226993560791000,36.6310005187988300,222.8424987792968800,104.7542037963867200,19.5261592864990230,30.6631908416748050,62,459,64,64,58,9691,2146958729,2147512566,2147270217,2147444937,2147069430,2146979236,2147700699,2147130029,2465,-1,8,56465
1375286459,5805,220.6199951171875000,19.7078990936279300,36.6339988708496100,224.3101959228515600,98.9798431396484400,19.7013301849365230,30.5126590728759770,63,457,64,64,59,9697,2146959222,2147511835,2147269504,2147443392,2147079853,2146990848,2147727405,2147131072,1990,-1,8,23541
1375286600,5807,209.9299926757812500,19.8045005798339840,36.6305007934570300,229.9797973632812500,95.6533279418945300,19.8022899627685550,30.1890106201171880,62,462,64,64,58,9701,2146958445,2147513472,2147270555,2147442752,2147083739,2146999908,2147738057,2147135286,488,-1,8,1103
1375286751,5803,199.0500030517578000,20.0995998382568360,36.6492004394531250,234.7633056640625000,86.2519836425781200,20.0878295898437500,29.8366909027099600,62,479,64,64,57,9693,2146956909,2147512877,2147272054,2147444717,2147081042,2147013174,2147749248,2147132662,3413,-1,8,44431
1375286806,5807,195.1399993896484400,20.1616001129150400,36.6573982238769500,232.3352966308593800,84.0610885620117200,20.1544208526611330,29.9240093231201170,61,462,64,63,57,9704,2146954523,2147515145,2147268260,2147440932,2147081133,2147013476,2147756708,2147134528,3556,-1,8,28648
1375286861,5803,191.1699981689453000,20.2306003570556640,36.6652984619140600,229.4214935302734400,81.7447967529296900,20.2248401641845700,30.0346107482910160,62,473,64,63,58,9698,2146958345,2147515062,2147271945,2147442422,2147086098,2147019136,2147765430,2147132854,3109,-2,8,11728
1375286942,5806,185.6900024414062500,20.3945007324218750,36.6786003112793000,224.8256072998047000,76.3898773193359400,20.3877105712890620,30.1908607482910160,62,462,63,64,58,9689,2146957952,2147512493,2147270253,2147438528,2147088027,2147033334,2147792749,2147137627,2412,-1,8,49089
1375286997,5802,182.4600067138672000,20.5237007141113280,36.6982002258300800,220.3018035888672000,72.0563812255859400,20.5195999145507800,30.3619804382324220,63,461,64,64,59,9696,2146958244,2147513883,2147268434,2147440192,2147084836,2147038409,2147806299,2147136210,2401,-2,8,55174
1375287076,5808,178.0500030517578000,20.6308002471923830,36.6892013549804700,220.3614044189453000,68.7517013549804700,20.6202201843261720,30.3158607482910160,63,459,64,64,58,9694,2146958921,2147515492,2147273353,2147440228,2147090660,2147054482,2147833792,2147138048,1862,-1,8,42716
1375287143,5803,174.5599975585937500,20.8419990539550780,36.7065010070800800,220.1936035156250000,61.9206695556640600,20.8283596038818360,30.2353706359863280,62,469,64,64,58,9698,2146960667,2147514459,2147273398,2147436406,2147093586,2147074258,2147870985,2147139620,1491,-1,8,17441
1375287224,5803,170.6900024414062500,21.1180992126464840,36.7336006164550800,205.4671020507812500,53.1460990905761700,21.0960006713867200,30.8991603851318360,65,464,64,63,59,9696,2146956571,2147517449,2147272539,2147438080,2147094043,2147095158,2147924955,2147140452,1351,-2,9,50795
1375287315,5803,166.6900024414062500,21.2017993927001950,36.7326011657714840,198.2527008056640600,49.8154487609863300,21.1976890563964840,31.2606601715087900,63,464,64,64,59,9697,2146957842,2147520009,2147277101,2147434715,2147100434,2147129590,2147987218,2147145490,1516,-2,9,21363
1375287406,5805,162.6699981689453000,21.2439002990722660,36.7284011840820300,198.5238952636718800,48.5271911621093750,21.2370300292968750,31.2281494140625000,63,462,64,64,59,9684,2146957549,2147518857,2147279597,2147434532,2147110436,2147224978,2148191250,2147159113,1248,-1,8,46635
1375287497,5803,158.7400054931640600,21.2525997161865230,36.7234992980957000,201.2543029785156200,48.1601600646972660,21.2482395172119140,31.0676708221435550,64,468,64,64,59,9694,2146957613,2147521133,2147279213,2147435291,2147114944,2147218742,2148164992,2147158473,2028,-1,9,63247
1375287591,5803,154.7599945068359400,21.3143997192382800,36.7052993774414060,207.9716949462890600,46.1315498352050800,21.3102092742919920,30.6700096130371100,63,468,65,63,57,9690,2146955812,2147520850,2147282532,2147435867,2147122752,2147275757,2148266816,2147165686,2026,-2,8,20601
1375287706,5806,151.0700073242187500,21.3614997863769530,36.6949996948242200,218.0346069335937500,44.6346893310546900,21.3559494018554700,30.1204795837402340,64,468,64,63,58,9696,2146957860,2147521316,2147279963,2147432859,2147119698,2147231460,2148168621,2147159341,1282,-2,9,15307
1375287883,5805,146.0399932861328000,21.6383991241455080,36.7181015014648440,220.2776947021484400,35.7762184143066400,21.6268501281738280,29.8919696807861330,64,466,64,63,57,9687,2146957933,2147524544,2147290011,2147435163,2147140123,2147330715,2148356032,2147170523,1440,-2,9,55165
1375287986,5806,141.8200073242187500,21.6420001983642580,36.6842002868652340,225.8719024658203000,35.4548187255859400,21.6366806030273440,29.6099090576171880,64,463,64,65,57,9694,2146960310,2147526043,2147296219,2147435062,2147165019,2147453787,2148571968,2147183670,674,-2,8,54946
1375288077,5804,137.8200073242187500,21.7042999267578120,36.6890983581543000,228.7693939208984400,33.1938095092773440,21.7058906555175780,29.4403991699218750,63,466,65,64,57,9696,2146957878,2147522916,2147287826,2147435008,2147157357,2147395876,2148431369,2147178651,3563,-1,8,31689
1375288182,5806,134.0000000000000000,21.9255008697509770,36.6716003417968750,229.8614044189453000,26.4252300262451170,21.9132194519042970,29.3014698028564450,66,466,64,65,58,9683,2146958555,2147529526,2147294162,2147432484,2147182921,2147506505,2148638080,2147187648,2426,-2,9,7048
1375288357,5807,130.2899932861328000,22.1723995208740230,36.6749992370605500,225.2783966064453000,20.3367195129394530,22.0999202728271500,29.4454002380371100,65,469,64,64,57,9690,2146958189,2147529728,2147294198,2147430683,2147189842,2147509074,2148605275,2147187291,837,-1,9,11483
1375288515,5805,125.8399963378906200,22.3390007019042970,36.6661987304687500,224.5372924804687500,12.9091100692749020,22.3279399871826170,29.3870506286621100,66,471,63,64,58,9679,2146958299,2147535506,2147305545,2147433344,2147235392,2147673115,2148889883,2147206747,991,-2,9,40316
1375288618,5804,122.1900024414062500,22.6728000640869140,36.6683006286621100,225.9916992187500000,2.7407529354095460,22.6405906677246100,29.1868495941162100,67,466,65,64,57,9681,2146960320,2147531017,2147304475,2147428324,2147243702,2147683958,2148881152,2147209554,1271,-2,9,16150
1375288919,5807,117.5699996948242200,23.1536006927490230,36.6558990478515600,222.8011932373047000,-13.2730998992919920,23.1341705322265620,29.1394691467285160,66,472,64,64,57,9675,2146963858,2147542418,2147311314,2147428214,2147311862,2147905115,2149263323,2147233270,982,-2,8,44719
1375289010,5807,114.1900024414062500,23.2530002593994140,36.6473007202148440,224.6204071044922000,-16.6577301025390620,23.2386894226074220,29.0076103210449220,67,464,65,64,58,9678,2146960438,2147538413,2147313865,2147426413,2147320420,2147897837,2149203346,2147232356,249,-2,8,56021
1375289154,5805,109.7699966430664000,23.4496994018554700,36.6341018676757800,226.3182067871093800,-23.2458496093750000,23.4423294067382800,28.8425807952880860,67,473,63,64,55,9677,2146966134,2147541193,2147317686,2147426441,2147371593,2147994212,2149311579,2147243766,262,-2,9,12578
1375289269,5810,106.2300033569336000,23.7782993316650400,36.6085014343261700,226.4875946044922000,-32.9310302734375000,23.7422103881835940,28.7129096984863280,67,472,64,64,57,9670,2146964525,2147541312,2147309677,2147424905,2147367232,2147923081,2149166080,2147235273,30,-1,9,13099
1375289487,5803,101.9499969482421900,23.9944992065429700,36.5970001220703100,225.2248992919922000,-40.5885696411132800,23.9797401428222660,28.6773300170898440,67,480,65,65,57,9668,2146964187,2147537371,2147307858,2147421403,2147373403,2147878601,2149032036,2147229321,3195,-1,8,3740
1375289578,5803,98.7099990844726600,24.0389995574951170,36.5895996093750000,226.1329956054687500,-42.4521598815918000,24.0375995635986330,28.6105899810791000,67,474,65,64,56,9672,2146968950,2147544566,2147320493,2147424594,2147479085,2148134537,2149429403,2147260681,2477,-2,9,39374
1375289633,5803,96.5699996948242200,24.2775993347167970,36.5868988037109400,225.8448028564453000,-48.9503898620605500,24.2395591735839840,28.5428504943847660,66,471,64,64,57,9671,2146966573,2147552109,2147336795,2147422025,2147562770,2148349558,2149744868,2147286674,2046,-2,9,52641
1375289688,5806,95.0699996948242200,24.3017005920410160,36.5746002197265600,224.9600982666015600,-50.3924598693847660,24.2844200134277340,28.5673408508300780,67,473,65,64,58,9666,2146972480,2147556891,2147341312,2147422528,2147613266,2148469019,2149927872,2147302116,1608,-2,9,42268
1375289773,5806,93.2699966430664000,24.7087993621826170,36.5603981018066400,224.8078002929687500,-62.4293289184570300,24.6594200134277340,28.4242401123046880,68,480,65,64,56,9656,2146976201,2147556534,2147348050,2147422564,2147667876,2148576941,2150080667,2147316077,630,-2,9,28772
1375289900,5806,91.6299972534179700,24.9204006195068360,36.5495986938476560,226.5009002685547000,-70.0392684936523400,24.8970508575439450,28.2486495971679700,70,473,64,64,55,9652,2146976292,2147561938,2147347465,2147419821,2147704557,2148633417,2150158080,2147324096,3410,-2,9,51526
1375290015,5802,89.4800033569336000,24.9722995758056640,36.5494995117187500,229.4839935302734400,-72.0577468872070300,24.9601497650146500,28.0834999084472660,70,476,64,64,55,9655,2146980507,2147573110,2147364845,2147417627,2147829403,2148951451,2150620269,2147364461,3385,-2,9,28899
1375290112,5805,86.9000015258789000,25.2152996063232420,36.5354003906250000,228.9427032470703000,-79.3656768798828100,25.1888599395751950,28.0182704925537100,71,475,63,66,56,9647,2146987364,2147584411,2147388928,2147418285,2148021156,2149363053,2151238976,2147419858,3181,-2,9,24092
1375290179,5805,85.4599990844726600,25.3651008605957030,36.5181999206543000,223.5460052490234400,-84.0266571044921900,25.3349494934082030,28.2156791687011720,76,475,64,65,57,9630,2146994075,2147597037,2147410340,2147425956,2148199533,2149765046,2151848704,2147477568,3325,-2,9,64491
1375290444,5807,83.5199966430664000,25.6630992889404300,36.4468994140625000,222.8583984375000000,-94.0954132080078100,25.6511096954345700,28.1237506866455080,82,492,65,64,56,9615,2147008256,2147625307,2147463780,2147424173,2148632301,2150734409,2153401435,2147632676,1715,-1,9,45110
1375290571,5807,81.6299972534179700,25.7360000610351560,36.4361991882324200,220.0072021484375000,-96.6287384033203100,25.7307891845703120,28.2298603057861330,82,476,64,64,57,9606,2147008521,2147624877,2147462893,2147422628,2148642459,2150652726,2153299254,2147640548,1664,-2,9,53264
1375290717,5805,79.1800003051757800,26.0186996459960940,36.3830986022949200,224.6941986083984400,-104.7958984375000000,25.9880104064941400,27.9035892486572270,84,484,63,64,58,9602,2147035282,2147673179,2147565888,2147430500,2149455241,2152309385,2155860406,2147923136,1386,-1,9,40300
1375290796,5808,77.4499969482421900,26.1112995147705080,36.3773002624511700,233.1726989746093800,-108.0177001953125000,26.0896301269531250,27.4709701538085940,86,488,64,65,57,9583,2147054528,2147706779,2147624338,2147436653,2150014070,2153412196,2157591085,2148125394,1900,-2,9,53661
1375290947,5802,75.6100006103515600,26.1469993591308600,36.3758010864257800,238.6535034179687500,-109.5708999633789000,26.1386604309082030,27.2070503234863280,87,481,63,66,57,9580,2147042724,2147673645,2147564297,2147430162,2149587776,2152225563,2155665051,2147961115,1429,-2,9,31743
1375291056,5805,72.7200012207031200,26.2201995849609380,36.3637008666992200,238.0207061767578000,-112.0168991088867200,26.2159004211425780,27.2051105499267580,88,482,64,66,58,9571,2147055954,2147687570,2147582729,2147435318,2149877595,2152420562,2155727268,2148023186,1312,-2,9,36464
1375291111,5804,70.3300018310546900,26.2332992553710940,36.3510017395019500,241.0153961181640600,-112.8266983032226600,26.2414798736572270,27.0639896392822270,86,479,64,66,57,9564,2147083318,2147722532,2147637988,2147437138,2150500681,2153372004,2156947035,2148210441,1422,-1,9,850
1375291166,5807,67.8300018310546900,26.3111000061035160,36.3250007629394500,246.1416931152343800,-114.8264999389648400,26.3046894073486330,26.8193893432617200,81,480,63,66,56,9563,2147107611,2147756342,2147679140,2147441325,2151133723,2154299657,2158035520,2148379766,1934,-1,9,4981
1375291221,5803,65.5699996948242200,26.3722991943359380,36.3184013366699200,249.8361968994140600,-116.6577987670898400,26.3625907897949220,26.6418209075927730,80,479,65,64,57,9583,2147148699,2147810523,2147750976,2147451181,2152216804,2155965065,2160021796,2148683712,2140,-2,9,33244
1375291276,5806,63.4599990844726560,26.3873996734619140,36.3205986022949200,253.9725036621093800,-117.3988037109375000,26.3860301971435550,26.4622306823730470,77,476,64,65,56,9581,2147136493,2147784914,2147692909,2147446966,2151847451,2154917814,2158127972,2148463716,1836,-2,9,23836
1375291360,5804,59.8100013732910160,26.4393997192382800,36.3146018981933600,250.8341979980468800,-119.1324005126953100,26.4408893585205080,26.5705795288085940,76,488,63,65,55,9584,2147139748,2147771428,2147646948,2147441481,2151776713,2154404379,2156799277,2148335424,1346,-2,9,13657
1375291415,5806,56.9799995422363300,26.5268993377685550,36.2883987426757800,250.8934020996093800,-121.6474990844726600,26.5205192565917970,26.5378303527832030,73,498,63,64,57,9588,2147171254,2147812288,2147687387,2147448265,2152633645,2155430317,2157610843,2148474633,1357,-2,9,31707
1375291470,5803,54.5600013732910160,26.6660003662109380,36.2784996032714840,256.0343933105469000,-125.8636016845703100,26.6541309356689450,26.2768898010253900,71,470,63,66,56,9594,2147218880,2147865947,2147739712,2147454811,2153773796,2156846957,2158849819,2148674797,1313,-1,9,58099
1375291612,5803,50.2599983215332000,26.7689990997314450,36.2507019042968750,269.1238098144531000,-129.3742980957031200,26.7655105590820300,25.7213497161865230,70,474,62,66,56,9553,2147351597,2148011931,2147890221,2147472256,2156937828,2160781787,2162323721,2149237330,1196,-1,9,61027
1375291649,5803,49.0000000000000000,26.7926006317138670,36.2542991638183600,274.9336853027344000,-130.0706939697265600,26.7876205444335940,25.4942798614501950,70,476,63,65,54,9552,2147391497,2148060845,2147946980,2147479680,2158046902,2162165586,2163584210,2149430656,1121,-1,9,24526
1375291696,5807,47.5499992370605500,26.8225994110107420,36.2378005981445300,286.0844116210937500,-131.0740966796875000,26.8194808959960940,25.0769996643066400,70,474,65,65,56,9555,2147459510,2148132516,2148024402,2147491712,2159686390,2164176045,2165364196,2149748361,1045,-1,9,14893
1375291769,5806,45.6699981689453100,26.8036994934082030,36.2121009826660160,302.1448974609375000,-130.6640930175781200,26.8064594268798830,24.5282592773437500,68,471,63,65,55,9563,2147587053,2148275419,2148161700,2147512749,2162911643,2168130011,2168904338,2150332489,720,-2,8,28318
1375291855,5806,43.9500007629394500,26.7824993133544920,36.1842002868652340,324.2911987304687500,-130.1417999267578000,26.7898807525634770,23.8231105804443360,68,471,63,66,55,9563,2147659593,2148343515,2148207378,2147515977,2164650194,2169875154,2170008411,2150516370,3149,-2,9,34882
1375291985,5805,41.0999984741210940,26.9542999267578120,36.1692008972168000,340.6330871582031000,-135.2337951660156200,26.9516506195068360,23.2745609283447270,68,495,62,66,58,9554,2147834998,2148505435,2148351250,2147538285,2168963227,2174447963,2173398180,2151179392,3335,-1,9,58692
1375292019,5805,39.8699989318847660,27.0520992279052730,36.1683998107910160,337.0127868652344000,-138.4141998291015600,27.0528106689453120,23.3449401855468750,68,482,64,66,57,9561,2147923666,2148586715,2148423862,2147550235,2171051739,2176683373,2175088347,2151485376,3093,-2,9,29373
1375292079,5806,37.5999984741210940,27.3204002380371100,36.1618003845214840,343.4837951660156000,-147.1513977050781200,27.3312091827392580,23.0573005676269530,67,477,63,65,53,9557,2148086921,2148742052,2148559606,2147579346,2175120777,2180944932,2178338706,2152174774,2711,-2,9,65166
1375292126,5806,35.7900009155273440,27.5706005096435550,36.0988006591796900,344.0000000000000000,-153.7673034667968800,27.5424804687500000,22.9678497314453120,67,473,63,65,56,9557,2148204699,2148857353,2148662226,2147599424,2177941622,2184005933,2180791396,2152707492,2825,-2,8,44298
1375292660,5806,33.6899986267089840,27.8952999114990230,35.9547004699707000,377.5134887695312500,-164.5625000000000000,27.8881301879882800,21.9310798645019530,66,469,61,65,53,9563,2148629211,2149249142,2148954075,2147632054,2187545718,2193919963,2187957677,2153976265,2602,-1,9,9550